Terminal Aerodrome Forecast
Issued by NWS

Home | Current Version | Previous Version | Text Only | Print | Product List | Glossary On
Versions: 1 2 3 4 5 6 7 8 9 10 11 12
000
FTUS45 KABQ 191100
TAFFMN
TAF
KFMN 191129Z 1912/2012 06005KT P6SM SKC
     FM192100 29012KT P6SM SKC
     FM200300 09007KT P6SM SKC=

USA.gov is the U.S. government's official web portal to all federal, state and local government web resources and services.